Location: Carrer del Canonge
(41.4901°N, 2.2931°E)
Time: 03:04:26
(UTC+00:00)

SPOT 3 Rocket - Pass Details

Date: 18 June 2021
Orbit: 779 x 794 km, 98.7° (Epoch: 01 August)

Event Time Altitude Azimuth Distance (km) Brightness Sun altitude
Exits shadow 22:10:56 - 226° (SW) 2,933 6.3 -21.0°
Reaches altitude 10° 22:13:52 10° 251° (WSW) 2,340 6.1 -21.2°
Maximum altitude 22:15:35 12° 271° (W) 2,235 6.2 -21.3°
Drops below altitude 10° 22:17:19 10° 291° (WNW) 2,349 6.6 -21.5°
Sets 22:21:29 0° 324° (NW) 3,290 8.1 -21.8°
